Погода в Прая-Гранди

Бразилия     23°59′59″S   46°24′50″W
темп.,
°C
ветер,
м/с
пор.,
м/с
влажн.,
%
обл.,
%
осадки,
мм/ч
давл.,
гПа
погр.,
м
27 февраля, сб
сб2700:00+21ссз118899 0.1 1014111
03:00+21зюз118881 0.1 1013157
06:00+21зсз118878 0.0 1013102
09:00+25ююз117672 0.2 1015531
12:00+26ююв227628 1.2 1015611
15:00+26юв337233 3.1 1013736
18:00+24юв2383100 1.4 1013481
21:00+23всв2289100 4.3 1014163
28 февраля, вс
вс2800:00+22ссз228999 3.1 101492
03:00+22сз118599 3.7 101375
06:00+22зсз1181100 0.0 101367
09:00+25в127393 0.0 1014444
12:00+26юв227190 0.0 1014443
15:00+27ю337250 0.9 1012704
18:00+24ююв128556 2.4 1012313
21:00+23всв129078 5.1 1013126
1 марта, пн
пн100:00+22ссв128899 0.0 1013135
03:00+22сз118560 0.0 101170
06:00+22сз118487 0.0 101282
09:00+26вюв127294 0.0 1013402
12:00+28ююв236491 0.0 1012761
15:00+27вюв226985 2.3 1010447
18:00+25всв237998 0.8 1010245
21:00+24с228099 0.9 101293
2 марта, вт
вт200:00+24сз127498 0.1 101345
03:00+23зсз127682 0.1 101263
06:00+23сз117892 0.0 101354
09:00+28св136296 0.0 1014479
12:00+30юв1257100 0.0 1014773
15:00+27вюв226896 1.6 1012341
18:00+24св4688100 2.8 1011267
21:00+23ссз3388100 4.4 1014108
3 марта, ср
ср300:00+24ссз1281100 0.3 101442
03:00+24зюз2378100 0.5 101396
06:00+23зюз3488100 0.9 1014178
09:00+23ссз1185100 1.3 1016118
12:00+26в2378100 0.9 1016473
15:00+25в3483100 3.0 1014400
18:00+24всв3487100 0.8 1013295
21:00+23всв2389100 1.3 1015208